Regional Weather Roundup
Issued by NWS Jackson, KY

Home | Current Version | Previous Version | Graphics & Text | Print | Product List | Glossary On
Versions: 1 2 3 4 5 6 7 8 9 10 11 12 13 14 15 16 17 18 19 20 21 22 23 24 25 26 27 28 29 30 31 32 33 34 35 36 37 38 39 40 41 42 43 44 45 46 47 48 49 50
000
ASUS43 KJKL 251219
RWRJKL

EAST KENTUCKY HOURLY WEATHER ROUNDUP
NATIONAL WEATHER SERVICE JACKSON KY
800 AM EDT SAT OCT 25 2014

NOTE: "FAIR" INDICATES FEW OR NO CLOUDS BELOW 12,000 FEET WITH
NO SIGNIFICANT WEATHER AND/OR OBSTRUCTIONS TO VISIBILITY.

* THESE REPORTS ARE NOT UNDER NWS QUALITY CONTROL AND MAY NOT
  REPORT WEATHER SUCH AS PRECIPITATION AND FOG.

KYZ079-080-083-085-087-088-110-112-115-119-120-251300
...EASTERN KENTUCKY...

CITY           SKY/WX    TMP DP  RH WIND       PRES   REMARKS
JACKSON        CLEAR     42  39  89 CALM      30.06F
6HR MIN TEMP:  41; 6HR MAX TEMP:  47;

LONDON         CLEAR     40  37  89 CALM      30.08F
6HR MIN TEMP:  39; 6HR MAX TEMP:  43;

SOMERSET*      CLEAR     39  39 100 CALM      30.10R FOG
MONTICELLO*    CLEAR     41  41 100 CALM      30.11R FOG
6HR MIN TEMP:  38; 6HR MAX TEMP:  42;

WILLIAMSBURG*  CLEAR     36  36 100 MISG      30.09
MIDDLESBORO*   FOG       38  38 100 CALM      30.12S VSB<1/4
6HR MIN TEMP:  37; 6HR MAX TEMP:  39;

HARLAN APT*    CLOUDY    37  37 100 CALM      30.11R VSB<1/4
BLACK MTN*       N/A     45  45 100 N1          N/A
PIKEVILLE APT* FOG       39  39 100 S5        30.07S VSB 3/4
BIG SANDY*     SUNNY     42  40  94 S3        30.07S
6HR MIN TEMP:  42; 6HR MAX TEMP:  46;

MOREHEAD APT*  SUNNY     43  41  93 S5        30.07S
ASHLAND*       CLEAR     39  36  87 CALM      30.03S
$$

KYZ035-036-041-042-044-050-067-078-099-251300
...CENTRAL KENTUCKY...

CITY           SKY/WX    TMP DP  RH WIND       PRES   REMARKS
MT STERLING*   CLEAR     43  41  93 W5        30.08R
FLEMING/MASON* CLEAR     43  39  87 S6        30.04F
DANVILLE*      CLEAR     43  41  93 S3        30.07S
RICHMOND*      CLEAR     46  41  81 S5        30.06R
LEXINGTON      PTCLDY    47  43  86 S7        30.05S
6HR MIN TEMP:  44; 6HR MAX TEMP:  49;

FRANKFORT      PTCLDY    43  41  93 CALM      30.02F
6HR MIN TEMP:  41; 6HR MAX TEMP:  44;

$$

KYZ091>093-OHZ055-061-077-WVZ005-015-034-035-042-251300
...SOUTHERN OHIO/WEST VIRGINIA...

CITY           SKY/WX    TMP DP  RH WIND       PRES   REMARKS
COVINGTON      MOCLDY    50  45  83 S8        29.99F
COLUMBUS       PTCLDY    45  39  79 SE5       29.96F
DAYTON         MOCLDY    52  47  83 SW9       29.97S
WILMINGTON     CLEAR     45  42  89 SW6       29.99F
HUNTINGTON     CLEAR     42  41  96 S5        30.03F
CHARLESTON     PTCLDY    36  35  96 CALM      30.05S
PINEVILLE*     FOG       38  38 100 MISG      30.14R VSB 1/4
BECKLEY        CLEAR     39  36  89 S5        30.06F
BLUEFIELD      CLEAR     40  35  83 W7        30.07S
$$

VAZ002-007-008-TNZ017-027-036-066-071-251300
...SOUTHWEST VIRGINIA/EAST TENNESSEE...

CITY           SKY/WX    TMP DP  RH WIND       PRES   REMARKS
WISE*          CLEAR     45  37  76 CALM      30.09S
JONESVILLE*    SUNNY     36  36 100 CALM      30.12S
ABINGDON*      CLEAR     36  36  97 CALM      30.10S
BRISTOL        FOG       34  33  96 CALM      30.11S VSB 1/2
KNOXVILLE      PTCLDY    41  39  93 CALM      30.10S
OAK RIDGE      FOG       41  40  96 CALM      30.12R VSB 1/2
CROSSVILLE     CLEAR     41  38  89 CALM      30.10F FOG
NASHVILLE      PTCLDY    45  43  93 S3        30.10R
$$

...KEY TO REMARKS...
VSB - VISIBILITY IN MILES
WCI - WIND CHILL INDEX
HX  - HEAT INDEX

$$



USA.gov is the U.S. government's official web portal to all federal, state and local government web resources and services.